Theta_e
338 338 339 340 340 340 341 342 342 341 341 340 339 338 337 336 335 335 334 333 333 333 333 333 332 333 334 334 334 334 334 333 333 334 334 334 334 334 332 331 330 331 331 332 332 332 331 331 331 331 331 330 330 330 329 329 328 328 327 327 328 326 325 324 322 321 319 316 315 316 317 320 322 324 325 325 325 325 324 324 323 320 318 315 311
337 338 338 338 338 339 341 342 341 341 340 339 338 337 336 336 334 334 333 333 333 333 333 332 332 333 333 334 333 334 334 334 333 334 334 334 334 333 332 332 332 332 333 333 332 332 331 331 331 331 330 330 329 329 328 328 327 327 327 327 325 322 320 319 317 316 314 313 313 314 317 319 322 323 324 324 323 321 321 320 317 313 309 306 303
337 337 337 337 338 339 340 341 340 339 338 336 336 336 336 335 334 333 333 332 333 333 332 331 333 333 333 334 334 334 335 334 334 335 334 334 333 332 331 332 332 332 332 332 331 331 331 331 331 330 329 329 328 328 327 327 327 327 326 323 320 317 316 315 314 314 313 312 312 314 316 317 321 324 321 319 318 317 316 313 308 304 301 300 299
337 337 337 337 337 338 340 339 338 337 335 334 335 335 335 334 333 333 333 333 333 333 331 331 332 334 334 334 334 335 335 335 334 334 334 333 332 331 331 331 331 330 330 330 329 329 330 330 330 329 328 328 327 327 327 327 327 325 322 318 316 314 314 313 313 312 311 311 310 311 313 314 317 317 314 314 313 311 310 307 302 300 299 299 299
337 337 337 337 337 338 339 339 337 336 334 333 333 333 334 333 332 333 333 333 334 333 332 331 332 334 335 335 335 335 335 334 334 334 333 332 332 331 331 330 330 329 329 328 328 329 330 329 328 327 327 326 326 326 326 325 323 320 317 314 313 312 312 311 311 310 309 309 307 307 309 311 310 307 307 310 309 306 305 302 299 299 298 298 298
336 337 337 337 337 337 338 338 337 335 333 333 333 333 333 332 332 333 333 334 334 334 333 333 334 334 335 334 334 334 335 334 333 333 332 331 331 331 330 330 329 329 328 327 328 328 328 327 326 325 325 325 325 324 323 320 317 315 313 311 310 310 310 310 309 308 307 305 304 304 304 305 304 302 303 305 304 302 302 300 298 298 298 298 298
336 337 337 336 337 336 337 337 336 334 333 333 333 333 333 333 332 333 333 334 334 334 334 334 335 334 335 334 333 333 334 333 332 331 331 331 330 329 329 329 329 328 328 327 327 326 325 324 324 323 324 323 322 319 317 314 312 311 310 309 308 308 307 306 305 304 303 303 302 302 301 301 301 301 301 300 300 300 300 299 298 298 297 297 298
336 336 336 336 336 336 336 337 336 334 333 333 333 333 334 333 333 333 334 334 334 334 334 335 334 334 334 334 333 333 333 333 331 330 330 330 329 329 329 329 328 328 328 327 325 323 322 322 323 323 322 320 316 313 312 310 309 308 307 306 305 304 303 303 302 302 302 302 301 301 301 301 300 300 300 299 299 299 299 299 299 298 297 297 297
336 336 336 336 336 336 336 336 336 334 333 333 333 334 335 334 334 334 334 334 334 334 334 334 334 333 334 333 332 332 332 332 331 330 330 329 328 328 328 328 328 327 326 324 322 320 321 322 322 320 318 314 312 310 308 307 307 306 304 303 302 302 301 301 301 301 301 300 300 300 300 300 299 299 299 299 299 299 299 299 299 298 297 296 296
336 336 336 336 335 335 335 335 335 334 333 333 334 334 335 335 334 334 334 334 334 334 335 334 333 333 333 333 332 332 332 332 332 331 331 329 328 328 327 327 327 325 323 321 320 320 320 320 318 316 313 310 308 307 306 305 304 303 302 301 301 301 301 301 300 300 300 300 300 299 299 299 299 299 299 299 298 298 298 298 298 298 298 297 296
336 336 336 336 335 334 334 334 334 334 333 334 334 335 335 335 335 335 334 335 335 335 335 334 334 333 333 333 333 332 332 332 332 331 331 330 328 327 326 325 324 322 321 320 319 319 318 316 314 311 309 307 305 304 303 302 301 301 301 301 300 300 300 300 300 300 300 300 300 300 300 299 299 299 298 298 297 297 297 297 297 297 297 297 296
336 336 336 335 335 333 333 333 333 333 334 334 335 335 336 336 335 335 335 335 335 335 334 334 334 333 332 333 333 332 332 332 331 331 329 328 327 326 325 324 322 321 320 319 318 317 315 312 309 307 306 304 303 302 301 300 300 300 300 300 300 300 300 299 300 300 299 299 300 299 299 298 298 298 297 296 296 296 296 296 296 297 297 296 296
336 336 336 335 334 334 333 332 332 333 333 334 335 336 336 336 335 335 335 335 335 335 334 334 333 333 332 332 332 332 331 331 330 329 328 327 326 325 324 322 320 320 319 318 315 313 310 307 305 304 303 302 301 300 300 299 299 299 299 299 300 299 299 299 299 299 299 299 299 298 297 297 297 296 296 296 296 295 295 295 295 296 296 296 296
336 335 336 335 334 334 333 332 332 332 333 333 335 336 336 335 335 335 334 334 334 334 334 334 333 332 331 331 331 331 330 329 329 329 328 327 326 324 322 320 319 319 317 315 311 308 305 304 302 301 301 300 300 299 299 299 299 299 299 299 299 299 299 298 299 298 298 298 297 297 297 296 296 296 295 295 295 295 295 295 295 295 295 296 296
336 336 335 335 334 333 334 333 332 333 334 333 334 335 335 334 335 335 334 334 334 334 334 333 333 331 330 330 330 329 329 330 330 329 328 326 324 321 320 319 318 317 314 310 306 303 302 301 300 300 299 299 299 299 299 299 298 299 299 299 299 299 298 298 298 297 297 297 296 296 296 296 295 295 295 295 294 294 294 294 294 295 295 295 296
335 336 334 334 334 334 334 333 332 333 334 334 334 334 334 334 334 334 333 333 334 334 334 333 332 331 330 329 329 330 331 331 330 329 327 324 321 319 319 317 316 314 311 305 302 301 300 300 300 299 299 298 298 298 298 298 298 298 298 298 298 298 297 297 297 297 296 296 296 295 295 295 295 294 294 294 294 294 294 294 294 294 294 294 295
335 335 334 334 335 335 334 333 332 333 333 333 333 333 333 333 333 332 332 333 333 333 333 332 332 331 330 330 330 331 331 330 329 327 325 322 320 319 318 316 314 312 307 301 300 300 299 299 299 299 298 298 298 298 298 298 298 298 298 298 298 297 297 297 297 296 296 295 295 295 295 295 294 294 294 294 294 294 294 293 293 293 293 293 293
334 334 333 333 335 335 334 333 332 332 332 332 332 332 333 333 332 331 331 332 333 333 332 332 332 331 331 331 331 331 330 328 326 324 322 321 319 318 316 314 313 309 303 299 299 299 298 299 299 298 298 297 298 297 297 297 297 297 297 297 297 297 297 297 296 296 296 295 295 295 294 294 294 294 294 294 293 294 293 293 293 293 293 293 293
334 334 334 333 334 335 335 333 332 333 333 332 331 332 333 333 331 330 330 331 332 332 332 332 332 331 331 331 330 330 328 326 324 322 320 319 317 316 315 313 311 306 300 298 298 298 298 299 298 298 297 297 297 297 297 297 297 297 297 297 297 297 297 297 296 296 295 295 294 294 294 294 294 294 293 293 293 293 293 293 293 293 293 293 293
334 335 335 334 334 334 334 333 332 334 334 332 332 333 333 333 332 331 330 330 330 331 332 332 331 331 330 330 329 328 326 324 322 320 318 317 316 315 313 311 308 303 298 297 298 298 298 298 297 297 296 296 297 296 297 297 296 297 297 297 297 296 296 296 296 295 295 294 294 294 294 294 294 293 293 293 293 293 293 293 293 293 293 293 293
334 335 336 335 334 333 333 333 332 334 334 332 332 333 333 333 332 330 329 329 330 330 331 331 331 330 329 329 327 326 324 322 320 318 317 316 315 314 312 309 305 300 297 297 297 297 297 297 296 296 296 296 296 296 296 297 296 297 296 296 296 296 296 296 296 295 295 294 294 294 294 294 293 293 293 293 293 293 293 292 293 293 293 293 293
334 335 336 335 335 334 333 333 332 333 334 333 333 332 332 333 331 330 329 329 330 330 331 331 330 329 328 327 325 324 322 320 319 317 316 315 314 313 311 307 302 299 297 297 296 296 296 296 296 296 296 296 296 296 296 296 296 296 296 297 296 296 296 296 295 295 294 294 294 294 294 294 293 293 293 293 293 293 292 292 293 292 292 293 293
334 334 335 335 335 334 333 332 332 332 334 333 332 331 331 332 331 329 329 329 330 330 330 329 329 328 326 325 323 322 320 319 317 316 316 315 313 312 310 305 300 298 297 296 296 296 296 295 296 295 295 296 296 296 296 296 296 296 296 296 296 296 296 296 296 295 295 294 294 294 294 294 293 293 293 293 292 292 292 292 292 292 292 292 292
334 334 335 334 334 334 333 332 332 332 332 332 332 332 332 332 331 330 329 329 330 329 329 328 327 326 325 323 322 321 319 317 316 315 315 314 312 311 308 302 298 298 297 296 296 296 295 295 295 295 295 295 295 296 296 295 296 296 296 296 295 295 296 296 295 295 295 295 295 294 294 294 293 293 293 292 292 292 292 292 292 292 292 292 292
334 333 334 334 334 334 333 333 333 332 331 331 332 332 332 332 331 330 328 329 329 329 328 328 326 325 324 323 321 319 318 316 315 314 313 312 311 310 305 300 298 298 297 296 296 295 295 295 295 295 295 295 295 295 295 295 296 296 296 296 295 296 296 296 295 295 295 295 295 294 294 294 293 293 293 292 292 292 292 292 292 292 292 292 292
334 333 334 333 333 333 332 333 333 332 331 330 330 331 331 331 330 329 328 329 329 328 328 327 325 324 323 321 319 317 317 316 314 313 312 310 310 308 302 298 298 298 297 296 295 295 295 295 295 295 295 295 295 295 295 295 295 296 296 295 296 296 296 295 295 295 295 295 295 294 294 294 293 292 292 292 292 292 292 292 292 292 292 292 291
333 333 333 333 333 332 332 332 333 332 331 331 330 330 330 330 330 329 328 329 329 328 327 326 324 323 321 319 317 316 316 315 313 311 310 309 309 305 300 298 298 298 297 295 295 295 295 295 295 295 294 295 295 295 295 295 295 295 295 295 296 295 295 295 295 295 295 295 295 294 294 294 293 292 292 292 292 292 292 292 292 292 292 291 291
333 333 332 332 332 332 332 332 332 332 331 332 332 330 330 330 330 329 328 328 329 328 327 325 324 322 320 317 316 315 314 313 311 310 309 308 306 302 299 299 298 298 297 295 294 295 295 295 295 295 295 295 295 294 295 295 295 295 295 295 295 295 295 294 294 295 295 295 294 294 294 294 293 292 292 292 292 292 292 292 292 292 292 291 291
332 332 332 332 332 332 332 331 331 331 331 331 331 330 330 330 330 330 328 327 328 328 326 325 324 323 319 316 315 314 312 311 310 309 309 307 304 300 299 299 298 297 296 295 294 295 294 295 295 294 295 294 294 294 294 295 295 295 295 295 295 295 295 295 294 294 294 294 294 293 294 293 293 292 292 292 292 292 292 292 291 291 291 291 290
332 332 332 332 331 331 331 331 331 331 331 330 330 329 329 329 329 329 329 328 328 328 326 325 324 323 319 316 314 313 311 310 310 309 308 305 302 299 299 299 298 297 296 294 294 295 294 294 294 294 294 294 294 294 294 294 295 295 295 295 294 294 294 295 294 294 294 294 293 293 293 293 292 292 292 293 293 292 292 291 291 291 291 290 290
332 332 332 332 332 332 331 331 331 331 331 331 330 329 329 328 328 329 329 328 328 327 326 325 324 322 319 316 313 312 311 310 310 309 306 303 301 299 299 299 298 296 295 294 294 294 294 294 294 294 294 294 294 294 294 294 294 294 294 294 294 294 294 294 294 294 294 293 293 293 293 293 292 292 292 293 293 292 291 291 291 291 291 291 290
332 332 332 331 331 331 331 330 330 330 330 330 329 329 329 328 328 328 328 329 328 327 326 324 322 321 318 316 313 312 311 311 310 309 306 303 301 299 299 299 297 296 295 294 294 294 294 294 294 294 294 294 294 294 294 294 294 294 294 294 293 293 293 294 294 294 294 294 293 293 293 292 292 292 293 293 292 292 291 291 291 291 291 291 291
332 332 332 331 331 331 330 330 330 330 330 330 329 329 329 328 328 328 328 328 328 326 324 322 321 319 317 315 314 312 312 311 310 309 306 303 301 299 298 298 297 296 295 294 294 294 294 294 294 294 294 294 294 294 294 294 294 294 294 294 293 293 293 293 293 294 294 293 293 293 292 292 292 292 293 293 292 291 291 291 291 291 291 291 291
332 332 331 331 331 330 330 329 329 329 329 329 329 328 327 327 327 328 328 328 327 325 322 321 319 317 315 314 313 312 311 310 309 308 307 304 300 298 298 298 297 296 294 294 294 294 294 294 294 294 294 294 294 294 294 294 294 294 293 293 293 293 292 292 293 293 293 293 293 293 292 292 292 293 293 293 292 291 291 290 290 291 291 291 291
331 331 331 331 331 330 330 329 329 329 329 329 328 327 327 327 327 327 327 326 325 323 320 318 317 315 314 313 312 311 310 310 309 308 307 304 300 299 298 297 296 295 294 294 294 294 294 294 294 294 294 294 294 294 293 293 293 293 293 293 293 293 293 292 292 292 293 293 293 292 292 292 293 293 293 293 292 292 291 290 290 290 290 291 291
331 331 331 331 330 330 330 329 329 329 328 328 328 327 327 327 326 326 326 324 322 320 319 317 316 315 313 312 312 311 310 310 309 308 306 303 300 300 299 297 296 295 294 293 293 294 293 294 294 294 293 293 293 293 293 293 293 293 293 293 293 293 293 292 292 292 292 292 292 292 292 293 293 293 293 293 293 292 291 290 290 291 290 290 291
331 331 330 330 330 330 329 329 329 329 328 328 327 327 327 326 326 325 324 322 321 320 319 318 316 315 313 312 311 311 310 310 309 307 304 302 300 300 299 298 296 295 294 293 293 293 293 293 293 293 293 293 293 293 293 293 293 293 293 293 293 293 293 292 292 292 292 292 292 292 292 293 293 293 293 293 293 292 291 290 290 291 291 290 290
331 330 330 330 330 329 329 329 328 328 328 327 327 327 327 326 326 325 323 321 319 319 320 319 317 315 314 313 312 311 310 310 308 305 303 302 301 300 299 298 297 296 294 293 293 293 293 293 293 293 293 293 293 293 293 293 294 294 293 293 293 293 293 293 292 292 292 292 292 292 292 292 292 293 293 293 293 292 291 290 290 290 290 290 290
331 331 330 330 330 329 329 328 328 327 327 327 327 327 327 326 326 325 323 321 320 321 321 319 317 316 314 313 312 311 310 309 306 304 303 301 301 300 299 298 298 296 294 293 293 293 293 293 293 293 293 293 293 293 293 293 294 294 294 294 293 293 293 293 293 292 292 292 292 292 292 292 292 293 293 293 292 292 291 290 290 290 290 290 290
331 331 330 330 330 329 328 328 328 327 327 327 327 327 327 327 326 325 323 322 322 322 321 319 317 315 314 313 312 311 310 307 304 303 302 301 300 300 300 299 298 297 294 293 293 293 293 293 293 293 293 292 292 293 293 294 294 294 294 294 293 294 293 293 292 292 292 292 292 292 292 292 293 293 293 293 292 291 291 290 290 290 290 290 290
331 331 330 330 330 329 329 328 327 327 327 327 327 327 327 327 326 325 324 323 323 321 319 318 316 315 314 313 312 311 309 306 304 303 303 302 301 300 300 298 298 297 295 293 292 293 293 293 293 293 293 293 293 293 293 293 293 293 294 293 293 294 293 293 292 292 292 292 292 292 292 293 293 293 293 293 292 291 291 291 290 290 290 290 290
331 331 330 330 330 329 329 328 327 327 327 327 327 327 326 326 326 325 325 323 321 320 319 318 316 315 314 313 312 310 307 305 304 304 303 302 302 301 300 298 297 297 296 294 293 293 293 293 293 293 293 293 293 293 293 293 293 293 294 293 294 294 293 292 292 292 292 293 293 293 293 293 293 294 293 293 292 292 292 292 291 291 290 290 290
331 331 330 330 330 329 329 328 327 326 326 326 326 326 326 326 326 326 325 322 320 320 319 317 316 315 314 312 311 308 306 305 304 304 302 302 302 301 299 298 297 296 296 295 293 292 293 293 294 294 294 294 294 294 294 293 293 293 294 293 294 293 293 293 293 293 293 293 293 293 293 293 294 294 294 293 293 292 292 292 292 292 291 291 291
331 331 331 330 330 329 329 328 327 326 326 325 326 326 325 325 325 325 323 320 319 319 319 317 316 314 313 312 309 306 304 304 303 303 302 302 301 299 298 298 297 296 296 295 293 292 293 294 295 295 295 295 294 294 294 293 293 293 294 294 294 293 293 293 293 293 293 293 293 293 293 294 294 294 294 294 293 293 292 292 292 292 292 291 291
331 331 331 330 330 330 329 328 327 326 326 325 325 325 325 325 325 324 322 320 320 319 318 316 315 314 312 311 308 305 303 303 302 301 301 301 300 299 298 297 297 295 294 294 293 292 293 295 295 296 296 295 295 294 294 293 293 293 293 294 294 294 293 293 293 293 293 294 294 294 294 294 295 295 295 294 294 293 293 292 292 292 292 292 291
330 331 330 329 329 329 328 328 326 325 325 325 324 325 325 325 325 323 321 320 320 319 317 316 315 313 312 310 308 304 303 303 302 301 300 300 299 298 297 296 295 294 294 293 292 293 294 296 296 297 297 296 296 295 294 294 293 293 293 293 294 294 294 294 294 294 294 294 294 294 295 295 295 295 295 295 294 293 293 292 292 292 292 292 291
330 330 330 329 328 328 328 327 326 325 324 324 324 324 324 324 324 323 321 320 319 318 317 315 314 313 311 310 307 304 303 303 302 301 301 300 299 297 296 295 294 294 294 293 292 293 295 296 297 297 297 297 296 296 295 294 293 293 293 293 293 294 294 294 294 294 294 294 295 295 295 295 295 295 295 295 294 294 293 293 292 292 292 292 292
329 329 329 328 328 327 327 327 326 326 325 324 324 324 324 323 322 321 320 320 319 317 316 315 314 313 311 309 307 305 303 302 301 300 300 300 298 297 295 294 294 294 294 293 293 293 295 297 298 297 297 297 297 296 295 294 294 294 294 293 293 293 293 294 294 295 295 295 295 295 296 296 296 296 296 296 295 295 294 293 293 292 292 292 292
328 329 328 328 327 326 327 327 326 326 325 324 324 323 323 323 322 320 319 319 318 316 315 314 313 312 311 309 307 305 302 301 300 300 300 299 298 296 295 294 294 294 294 294 293 294 296 297 298 298 298 298 297 297 296 295 294 294 293 293 294 293 293 293 294 294 295 295 295 296 296 296 296 296 296 296 296 295 295 294 293 293 292 292 293
328 328 328 328 327 327 327 326 326 325 325 324 323 322 322 322 321 320 319 318 317 315 314 313 312 312 311 309 306 304 302 300 300 300 300 300 299 297 295 294 294 293 293 293 294 296 297 298 298 298 298 298 297 298 297 295 294 294 294 294 294 293 293 293 293 294 295 295 295 296 296 296 296 296 296 296 296 296 295 294 293 293 293 292 293
327 327 327 326 326 326 327 326 326 325 324 323 322 322 321 321 320 319 318 317 316 315 314 313 312 312 311 308 305 302 301 300 300 300 300 300 299 298 296 295 294 293 294 295 296 298 299 299 299 299 298 298 298 297 296 295 294 293 293 294 293 293 293 293 293 294 295 295 296 296 296 296 296 296 297 296 296 296 296 295 293 293 293 293 293
Wind_Speed
27 27 28 27 26 26 25 24 23 24 24 24 24 23 22 20 19 17 16 16 14 14 14 13 12 11 12 13 13 13 12 12 11 10 9 9 9 8 8 6 5 5 5 6 7 8 10 12 14 15 16 15 15 14 14 15 15 16 16 17 17 18 17 16 15 14 11 10 9 9 9 9 9 9 10 10 10 9 10 12 13 15 16 16 17
26 26 26 26 26 26 25 24 24 25 25 23 22 21 20 19 17 16 16 15 15 14 14 13 12 12 13 14 13 13 13 12 11 10 10 9 9 8 6 4 4 4 6 7 9 11 12 14 15 16 16 16 16 16 17 17 17 16 16 17 17 17 16 15 14 13 11 10 9 6 4 6 7 8 8 9 10 10 11 12 14 15 16 16 16
25 25 26 26 26 26 26 25 24 24 23 21 21 20 20 19 18 17 16 15 15 15 15 15 14 14 15 15 14 13 13 13 12 11 11 10 9 7 5 4 5 7 8 10 11 13 14 15 16 17 17 18 18 18 18 17 16 15 15 15 15 14 14 14 14 13 13 12 10 5 3 4 5 6 7 10 11 11 11 11 13 15 16 16 16
25 24 26 27 27 28 27 27 26 25 22 21 21 21 21 20 19 19 17 16 15 15 16 16 16 15 16 15 13 13 13 13 12 11 11 10 9 8 7 7 9 10 11 12 13 14 15 16 17 18 18 18 18 17 17 16 14 13 13 13 12 12 12 13 14 14 14 13 10 8 6 2 2 3 7 9 10 11 11 11 14 16 16 16 16
26 25 26 27 29 29 29 29 28 25 23 21 21 21 21 21 20 19 18 17 16 15 16 17 17 17 17 15 13 13 14 13 13 12 11 10 9 9 10 10 11 12 13 14 14 15 16 17 18 18 18 17 17 16 15 14 12 11 11 10 10 10 11 12 13 14 14 13 11 9 7 3 4 8 8 7 8 9 9 13 16 17 18 19 19
26 26 27 28 29 30 30 30 29 27 24 22 21 21 21 21 20 19 18 17 16 15 16 17 17 17 17 16 15 15 15 15 14 13 12 11 10 10 11 12 13 14 15 15 16 16 17 18 18 18 17 16 15 13 12 11 10 9 8 8 9 10 11 12 13 13 13 13 12 10 8 6 9 12 10 8 8 7 8 12 15 16 18 19 20
26 26 27 28 29 31 32 31 31 28 25 23 22 22 22 21 20 19 17 17 16 16 16 16 16 16 16 15 15 15 15 15 14 13 13 12 12 12 12 14 15 16 16 16 17 18 18 17 17 15 14 13 11 9 8 8 8 8 8 9 10 11 12 12 12 12 12 12 12 12 11 11 12 12 12 12 12 10 10 11 13 16 17 18 20
28 28 28 28 30 32 33 32 31 29 26 25 24 24 23 21 19 18 17 17 17 17 16 15 15 15 15 14 14 13 14 14 14 14 13 13 13 13 14 16 17 17 17 17 17 17 15 14 13 11 10 9 7 6 6 7 7 8 9 10 11 11 11 12 12 11 10 11 11 12 12 13 13 13 13 14 14 14 14 15 16 18 18 19 20
29 30 30 30 31 32 32 32 31 30 27 26 25 24 23 21 19 18 17 17 17 17 17 16 16 15 14 13 13 13 14 14 14 13 13 13 14 15 16 17 18 18 17 16 15 14 12 11 10 8 7 6 5 5 5 7 8 9 9 10 10 11 11 11 11 10 10 11 11 11 11 11 11 11 11 12 14 14 16 18 20 20 20 22 22
30 30 30 30 30 31 32 31 31 31 29 27 25 24 23 21 20 19 18 17 17 18 18 17 17 15 14 13 13 14 14 15 15 14 14 14 15 16 17 18 18 17 16 15 13 12 11 9 7 5 4 3 3 5 6 7 8 9 9 10 10 10 10 11 10 11 11 11 10 10 9 9 9 10 11 13 15 15 16 19 21 22 22 23 24
31 30 30 29 29 29 31 31 31 32 30 28 26 25 24 22 21 21 19 18 18 19 18 18 18 16 15 14 14 14 15 15 15 15 15 15 15 16 16 17 16 15 14 14 12 11 9 6 3 2 2 3 4 5 6 7 8 9 10 10 10 10 11 12 12 11 11 11 10 9 10 11 11 12 14 15 16 16 17 19 20 20 21 22 23
32 31 30 30 29 29 30 30 30 32 31 29 27 26 24 23 22 22 20 19 20 20 19 19 18 17 15 14 14 14 14 14 14 14 15 15 15 16 16 14 13 13 13 13 11 8 5 2 1 2 2 3 4 5 6 8 9 9 10 10 10 11 12 12 12 12 12 12 11 11 12 13 13 14 15 16 16 17 18 19 20 21 22 22 23
32 33 32 31 30 30 31 32 30 31 31 29 28 27 25 24 23 22 21 20 21 21 20 19 18 17 16 14 14 14 14 14 14 14 15 15 15 15 14 12 12 13 13 11 8 5 1 1 2 2 2 3 4 6 7 8 9 9 9 10 10 11 12 12 12 12 13 13 13 13 13 14 15 15 16 17 18 18 18 19 21 22 23 23 23
33 33 34 33 32 32 33 33 31 31 31 29 29 28 25 24 24 23 22 21 22 22 20 19 18 17 16 15 15 15 15 14 14 14 15 15 14 13 12 12 13 13 12 8 4 1 2 2 2 2 2 4 5 6 7 7 8 8 9 9 10 11 11 11 12 12 13 13 13 13 14 15 16 17 17 18 18 19 20 22 23 23 23 22 22
33 33 33 32 32 34 35 33 32 31 30 30 30 28 25 24 24 23 22 22 22 21 20 19 18 17 16 16 16 15 14 13 13 14 14 13 12 11 11 13 14 12 8 4 2 2 2 2 2 2 2 3 5 5 6 7 8 8 9 9 10 11 11 11 11 11 12 12 13 13 14 15 16 17 17 18 19 20 22 23 24 24 24 24 23
34 34 33 31 32 34 36 34 33 32 31 31 31 28 24 24 24 23 22 22 21 21 20 19 18 17 17 16 14 14 14 15 15 15 14 12 11 11 12 13 13 8 3 3 3 3 3 2 2 2 2 3 5 6 6 7 7 8 8 9 10 11 11 11 11 11 11 12 12 13 14 15 16 17 17 18 20 21 22 22 24 25 26 27 27
35 35 34 32 33 34 35 35 34 33 33 33 32 27 24 24 24 23 22 21 21 20 20 19 18 16 15 14 14 16 17 17 16 15 13 12 11 11 12 13 10 4 3 4 4 4 3 2 2 1 2 4 5 5 6 6 7 7 8 9 10 10 11 11 10 10 11 11 12 13 14 15 16 16 17 18 19 20 21 22 23 24 25 26 27
35 35 34 34 34 35 36 35 33 33 34 34 30 27 25 24 23 23 22 21 21 20 20 18 17 16 16 16 17 18 18 16 15 13 12 12 11 10 12 11 5 3 5 5 4 3 3 3 2 1 2 4 4 4 5 5 6 7 7 8 9 10 10 10 10 10 10 11 11 12 13 14 15 16 17 18 18 19 19 20 22 23 24 24 25
33 34 36 37 37 36 36 35 33 33 34 31 28 28 27 24 23 22 22 21 20 19 19 18 17 18 18 18 18 18 17 15 14 13 11 11 10 10 11 8 3 5 5 5 4 4 3 2 2 1 2 3 3 3 4 5 6 6 7 8 9 9 10 9 9 9 9 10 10 11 12 13 15 16 16 17 17 18 19 19 20 21 22 23 24
35 35 37 40 41 39 36 34 33 35 34 30 28 28 27 26 24 23 22 21 19 18 18 18 18 19 19 18 18 17 15 14 13 12 11 10 10 11 10 5 4 6 6 5 4 4 3 2 2 1 1 2 2 2 3 4 5 6 8 8 8 9 9 9 9 8 8 9 9 11 12 14 15 15 16 16 17 17 18 19 19 20 20 22 25
37 36 36 40 42 40 37 35 33 35 34 31 30 28 28 27 25 23 23 22 20 20 19 19 19 19 19 18 18 17 15 14 13 11 10 10 10 10 7 4 6 7 6 5 4 3 3 2 2 2 2 2 1 2 3 4 5 7 7 8 8 8 8 9 8 8 8 8 9 11 12 14 14 15 16 16 17 18 18 18 19 20 21 22 25
37 37 36 38 40 39 38 36 34 35 35 33 31 29 29 29 26 23 22 21 21 22 21 20 19 19 19 19 18 16 15 14 13 12 11 11 11 10 6 6 7 7 6 5 4 3 3 3 3 2 2 2 1 1 2 4 5 6 7 7 8 8 8 8 7 7 7 7 9 11 12 13 14 15 16 17 18 18 19 19 19 21 22 23 25
36 37 36 37 40 39 37 36 35 36 36 34 31 30 31 30 27 25 22 22 22 22 20 19 18 19 19 18 16 15 15 15 14 13 12 12 11 8 6 7 7 6 6 5 5 4 4 4 4 3 2 2 1 1 2 3 5 5 6 7 8 7 7 7 6 6 7 8 10 11 12 14 15 16 17 18 18 19 19 20 21 22 24 25 26
35 37 35 36 40 40 38 38 38 37 36 33 33 35 35 32 30 26 22 23 23 20 18 17 18 19 19 17 16 16 16 15 14 14 13 13 11 7 8 8 7 6 6 6 6 6 5 5 4 3 2 2 1 1 2 3 4 4 6 7 7 6 5 6 6 7 8 9 10 12 13 15 17 18 18 19 19 19 20 21 22 24 25 27 28
36 37 36 37 40 39 38 40 40 38 36 34 33 36 37 35 31 25 22 24 22 19 18 18 19 20 18 17 17 17 16 15 15 15 14 12 10 8 9 9 7 7 6 7 7 7 6 5 4 3 2 1 1 0 1 2 3 4 5 6 6 5 5 6 7 8 9 10 11 13 14 16 18 19 19 19 20 21 22 22 24 26 27 28 29
37 37 37 38 40 39 39 41 42 39 36 36 34 34 36 35 28 23 23 24 22 20 19 19 19 19 17 17 18 17 16 16 16 15 13 12 10 10 10 9 8 7 7 7 8 7 7 5 4 3 2 2 1 0 1 1 2 3 5 5 5 5 5 6 7 9 10 11 12 13 15 17 19 19 19 20 21 22 23 24 25 27 28 29 31
38 38 37 37 38 40 40 40 41 38 36 38 38 35 35 34 29 26 26 24 23 22 21 20 18 17 17 17 17 17 17 17 15 14 13 12 12 11 11 10 8 8 8 8 8 7 6 5 4 3 3 2 2 1 1 1 2 3 4 4 5 6 6 6 7 9 10 11 12 14 16 17 18 18 19 21 22 23 24 25 26 28 29 31 33
37 39 39 38 37 39 41 42 41 39 39 40 39 35 35 36 35 32 27 24 24 24 22 20 17 16 16 16 17 18 17 16 15 14 14 13 12 12 11 10 9 9 8 8 8 7 6 5 5 4 4 3 2 2 1 0 1 2 3 4 5 6 7 7 8 8 9 10 12 13 15 16 17 17 18 20 21 23 24 25 26 28 30 32 33
36 38 40 41 39 40 42 43 43 43 43 41 38 35 36 38 37 32 26 24 25 24 21 19 17 16 16 17 18 19 18 17 16 15 14 14 13 13 12 10 10 9 9 8 8 6 5 5 5 5 5 4 3 3 2 0 1 2 2 3 5 6 6 7 8 8 9 10 11 13 14 16 15 15 16 17 19 21 23 25 26 28 30 32 33
38 40 41 42 41 41 41 42 42 42 41 40 38 34 35 38 37 32 27 26 26 23 21 20 18 17 17 18 20 20 19 18 17 15 15 15 14 13 12 11 10 8 8 8 7 6 6 6 5 5 5 4 4 3 2 1 0 1 1 2 4 5 6 6 7 8 8 9 11 12 14 15 14 13 15 17 19 21 23 24 25 28 30 31 33
38 40 41 41 41 41 40 40 40 40 38 39 37 35 35 37 37 33 29 27 28 25 22 22 20 18 19 20 21 21 20 19 17 16 15 15 14 14 12 11 9 8 8 8 7 6 7 6 6 6 5 5 4 4 3 2 1 1 1 2 3 4 5 5 6 7 8 9 10 11 13 13 12 13 16 17 19 22 23 23 24 26 27 28 31
37 39 40 40 41 42 42 42 42 41 41 41 40 39 37 37 37 33 28 28 30 28 25 23 21 21 21 21 21 22 21 20 17 15 14 15 14 13 12 11 9 9 8 8 7 7 7 7 7 7 6 5 5 4 4 3 2 2 1 1 3 3 4 4 5 6 7 8 9 10 11 11 11 13 16 18 20 22 23 24 24 25 25 25 26
39 40 40 41 42 43 42 43 42 42 42 41 40 38 36 36 36 34 31 31 32 30 26 24 23 23 23 23 24 24 22 20 16 14 14 15 15 13 12 11 10 9 9 8 8 8 8 8 8 7 7 6 6 5 4 4 3 2 1 2 3 3 3 4 4 5 6 7 8 10 10 9 11 13 16 18 21 23 24 24 25 25 25 25 25
39 40 41 41 41 41 40 40 40 40 40 38 36 35 34 35 37 36 35 35 34 32 29 26 25 24 24 25 26 25 23 20 17 16 17 17 15 14 13 11 10 10 9 9 9 8 8 8 8 8 7 7 6 6 5 4 3 2 1 1 2 3 3 3 3 4 5 7 8 9 9 9 12 14 16 19 22 24 26 26 26 26 26 26 27
38 38 39 39 39 40 40 40 40 40 39 37 36 35 34 36 37 38 38 37 37 35 31 28 27 26 25 26 26 25 23 20 18 18 18 17 16 15 13 11 10 10 10 9 9 8 9 9 9 9 8 7 7 6 5 4 3 1 0 1 2 3 3 3 3 4 5 6 8 8 9 10 13 15 16 19 22 25 27 28 28 28 28 28 28
40 41 41 41 41 41 41 40 40 40 39 38 36 34 35 35 36 37 38 37 36 34 31 28 27 26 26 26 25 24 22 20 20 20 20 19 17 15 13 12 12 11 11 10 10 9 9 9 9 9 8 7 7 6 5 4 3 1 0 1 2 2 2 3 3 4 4 6 7 8 8 11 13 15 16 18 22 25 27 28 29 29 29 30 29
39 40 39 39 39 39 39 39 39 39 39 38 36 35 34 34 35 37 37 36 35 33 29 28 27 25 25 25 25 23 21 21 22 22 21 19 17 15 13 12 12 12 12 11 11 11 10 10 10 10 9 8 7 6 5 3 2 1 1 1 1 2 2 3 3 3 4 5 6 7 9 11 13 15 16 19 22 25 27 28 29 30 31 31 31
36 36 36 36 37 36 37 37 37 38 38 37 36 35 34 34 34 35 36 35 34 31 29 28 26 24 24 24 23 22 21 21 23 23 21 19 18 16 13 12 12 11 11 12 11 11 12 11 11 10 9 8 7 6 5 3 2 2 0 1 1 2 2 2 3 2 3 4 5 7 9 12 14 15 16 19 22 25 27 29 30 31 32 33 34
33 33 33 34 35 35 35 35 36 37 37 37 35 34 33 33 33 33 34 34 32 30 30 28 26 23 23 23 22 21 21 21 22 23 21 19 18 16 14 13 12 11 11 12 12 12 12 12 12 10 10 8 7 5 4 3 2 1 1 1 1 1 2 2 2 2 2 3 4 6 9 11 13 15 16 19 22 25 27 28 30 31 33 34 35
32 32 31 32 33 34 35 35 36 36 36 36 35 34 33 32 32 33 34 33 31 31 30 27 24 23 22 21 20 20 21 21 22 23 21 19 18 17 15 15 14 13 12 12 12 13 12 12 11 11 10 9 7 5 4 2 2 1 2 2 1 1 2 2 2 2 3 3 4 6 8 10 13 14 16 19 22 24 27 28 29 31 32 34 35
29 30 30 31 32 34 34 34 34 35 36 35 34 34 33 32 32 33 33 32 32 32 30 26 24 22 21 20 19 20 21 22 22 22 21 20 19 18 16 15 15 15 15 14 14 14 13 13 12 12 11 10 8 6 4 3 2 2 2 2 1 2 2 3 3 3 3 3 4 6 7 10 12 14 16 19 21 24 26 27 28 29 30 32 33
28 28 29 30 32 33 33 34 34 34 35 34 34 34 34 34 34 33 32 33 32 30 28 25 23 22 20 20 19 20 22 23 22 22 22 22 20 18 17 16 15 15 16 17 16 15 15 15 14 13 12 10 8 7 5 3 3 3 3 2 1 2 2 3 3 3 3 4 5 6 8 10 12 15 17 19 21 23 25 26 27 28 29 30 31
29 30 30 30 31 32 33 34 34 34 34 33 33 34 34 34 32 31 33 34 30 27 26 25 23 21 20 20 20 22 23 23 23 22 22 22 21 19 18 18 17 17 18 18 18 17 17 17 16 14 12 10 8 7 5 4 3 3 2 2 2 1 2 2 2 3 3 4 5 6 8 10 12 15 17 19 21 23 25 26 27 27 28 30 31
29 30 29 28 29 30 32 33 33 33 33 32 32 33 34 33 30 30 33 33 28 26 27 25 23 22 21 21 21 22 23 23 23 23 23 22 21 21 20 20 19 18 18 19 20 20 19 18 16 14 12 10 8 6 5 4 4 3 2 1 2 2 2 2 2 2 3 4 5 7 8 10 12 14 16 19 21 23 24 26 27 28 28 29 31
28 29 28 28 29 29 30 32 33 32 32 31 30 31 32 32 31 32 32 30 28 27 26 24 23 23 22 21 21 22 23 23 23 23 23 23 23 22 22 21 20 19 19 20 22 22 20 19 16 14 12 10 8 6 5 4 3 2 1 1 1 2 2 2 2 2 3 5 6 7 8 10 11 14 16 18 20 22 24 25 27 27 28 29 31
27 29 30 30 30 29 30 31 32 32 32 31 30 28 28 29 30 31 30 28 28 28 26 24 24 24 22 21 21 22 23 23 23 23 23 22 22 22 22 22 21 21 21 22 23 23 21 19 17 14 12 10 8 6 4 3 2 1 1 1 2 2 3 3 3 3 4 5 6 8 9 10 11 13 16 18 20 22 24 25 26 27 28 28 30
27 29 30 31 31 31 31 31 32 32 31 30 28 25 26 28 30 30 29 28 28 27 25 24 25 24 22 21 21 22 24 24 24 24 23 23 22 22 22 23 23 23 23 23 24 24 22 19 17 14 12 10 8 7 5 3 2 2 2 3 3 4 4 4 4 5 5 6 7 8 10 11 12 13 15 18 21 23 24 25 26 27 27 28 29
26 28 30 31 31 31 31 30 30 30 29 28 26 25 27 29 29 28 28 28 28 27 25 24 24 23 21 21 21 22 24 24 25 25 24 24 23 22 23 24 23 23 23 24 25 24 22 19 17 14 12 10 8 7 5 4 4 4 4 5 5 5 6 6 6 7 7 7 8 9 10 12 12 13 15 17 20 22 24 25 26 26 26 27 27
25 27 29 28 26 26 27 28 27 27 27 26 26 26 27 28 28 28 28 28 28 26 24 24 24 22 21 21 21 22 23 24 25 25 24 23 22 22 23 23 21 21 21 21 21 21 19 18 16 14 11 9 7 4 3 4 5 6 6 6 6 6 7 7 8 9 9 9 9 9 10 12 13 14 15 17 20 22 24 25 25 26 26 26 27
23 26 27 25 22 23 25 26 26 26 26 26 26 26 25 26 27 27 27 28 27 25 24 24 23 22 21 21 22 23 25 25 25 25 24 23 21 20 21 20 20 20 20 19 18 17 16 15 14 12 10 8 5 2 3 5 6 7 7 8 8 7 8 8 9 11 11 10 10 10 10 12 14 15 16 17 20 22 24 25 24 25 25 26 27
23 26 28 28 26 25 25 25 25 25 25 25 25 24 23 24 26 27 27 27 26 24 24 24 23 22 21 21 22 25 26 26 26 25 24 23 22 21 21 20 19 19 20 19 19 17 15 14 13 11 9 8 5 4 5 5 6 8 9 9 8 8 8 9 10 11 11 11 11 11 11 12 14 15 16 17 19 21 24 25 24 24 24 25 26
Wind_Direction
219 218 217 216 215 214 212 211 210 206 205 206 205 203 203 204 205 203 199 200 202 203 208 214 221 231 235 239 245 248 251 253 256 258 258 257 255 253 253 256 264 267 273 281 281 281 283 286 289 293 297 301 304 307 308 309 310 312 315 315 315 314 313 314 318 325 335 338 333 323 307 295 283 277 279 284 298 312 320 321 322 325 326 327 330
218 217 216 216 215 213 211 210 208 204 204 205 206 207 207 208 211 209 205 205 209 213 215 218 225 236 240 241 245 247 247 247 248 248 246 243 240 240 245 257 270 276 281 283 283 285 287 291 295 298 301 304 306 309 311 313 315 316 319 319 319 319 319 323 330 336 343 347 345 330 299 293 285 277 281 290 303 318 325 326 328 332 334 338 342
215 215 216 217 215 212 209 206 204 201 202 205 207 209 209 210 212 210 209 210 214 219 220 221 228 238 239 237 240 245 242 238 239 239 237 232 229 228 226 235 248 262 273 277 281 285 289 292 294 298 301 304 307 310 312 315 318 320 323 323 323 326 328 332 337 342 345 349 353 345 305 290 264 263 291 302 313 328 335 339 342 345 347 349 350
212 212 215 217 215 211 206 202 200 199 201 205 207 208 209 211 213 211 213 216 218 221 222 223 230 235 235 231 233 238 237 234 232 229 228 228 227 228 229 237 251 265 275 280 284 286 288 290 293 297 301 304 308 312 315 318 322 326 327 327 330 333 335 336 340 345 348 350 352 343 334 336 210 273 307 314 329 341 344 353 354 353 354 353 354
211 209 213 215 214 210 207 203 201 200 201 205 206 206 209 212 213 213 217 220 221 225 226 228 232 231 226 222 221 225 228 230 228 222 224 226 227 236 245 254 265 276 281 283 284 283 286 290 294 298 301 306 311 315 320 324 330 333 334 338 339 338 339 342 344 345 347 349 353 353 354 5 349 346 348 346 353 354 350 357 357 355 356 355 356
213 210 211 214 213 209 206 204 202 201 202 205 207 207 209 212 214 215 218 221 225 229 230 231 232 227 222 221 220 221 222 224 225 225 227 230 234 246 257 265 274 281 283 282 282 284 288 292 295 300 305 310 316 321 328 334 339 341 345 348 344 343 347 348 348 348 349 349 353 3 10 5 356 357 2 357 359 6 1 359 358 357 359 357 355
208 208 210 212 212 208 205 205 204 203 203 206 209 210 210 212 215 218 220 222 227 229 228 228 227 223 222 226 228 227 226 226 227 227 229 235 245 255 262 269 275 278 279 280 284 290 294 296 300 305 310 315 322 332 340 345 348 350 354 353 350 353 354 353 356 359 357 356 1 8 11 10 7 4 2 360 359 358 355 358 4 7 7 1 357
204 204 207 209 212 210 207 206 205 204 205 209 210 210 212 214 216 219 221 223 226 227 226 226 224 221 220 224 228 229 231 233 233 232 231 238 249 258 263 267 271 273 276 285 294 301 305 308 311 315 320 326 338 348 352 355 358 359 357 357 357 359 0 3 9 13 11 12 14 14 12 10 7 3 4 3 356 349 348 352 359 8 14 10 3
204 203 205 209 213 213 210 208 206 205 208 211 212 212 213 215 216 218 220 222 223 224 223 222 220 220 220 224 226 223 227 233 237 240 240 247 255 260 265 269 273 277 284 297 309 316 318 320 320 325 333 339 349 356 0 5 4 2 360 2 4 7 13 18 21 23 25 26 23 18 14 11 8 5 4 2 360 357 353 350 352 357 6 12 10
204 203 205 209 213 214 212 209 207 207 210 213 213 213 213 215 215 216 218 218 220 220 219 217 216 217 220 224 225 223 224 228 234 241 246 254 263 268 272 275 280 288 300 313 322 326 322 318 319 329 342 349 1 6 9 9 4 3 5 9 14 18 25 29 28 28 29 28 26 21 14 12 9 3 3 6 6 4 358 354 354 354 357 4 6
203 202 204 207 212 215 213 210 208 208 210 213 213 212 213 214 213 214 216 215 216 216 215 215 215 218 220 222 225 227 228 233 238 245 252 262 271 278 281 283 290 301 313 320 324 322 315 311 317 347 18 17 15 12 12 11 8 10 13 17 22 25 28 28 25 25 24 22 20 16 13 13 11 8 10 10 6 5 2 356 355 355 356 358 359
201 201 202 205 209 215 215 211 209 210 211 212 212 212 211 212 212 212 214 213 214 214 213 214 215 218 218 218 225 231 236 243 246 252 263 273 280 286 290 294 300 307 314 320 318 311 302 293 46 57 40 21 16 15 16 15 15 18 19 23 25 24 26 25 20 18 17 14 14 14 15 14 14 16 16 12 9 9 6 360 356 356 355 356 356
200 201 202 204 207 213 215 212 209 211 212 211 212 211 209 211 212 211 211 210 211 211 212 213 214 215 213 213 222 230 236 244 251 260 270 278 283 288 293 296 299 305 314 318 309 295 252 136 96 62 30 20 22 21 20 20 21 23 23 25 25 24 26 22 16 15 13 13 15 17 17 16 16 19 17 13 12 9 4 2 2 358 355 353 353
199 200 202 204 208 209 211 211 209 210 213 212 212 213 209 209 210 210 210 209 209 210 211 212 212 211 211 212 219 227 237 248 255 261 267 274 278 281 287 291 300 309 315 310 293 235 147 124 95 58 29 25 29 27 24 26 27 26 25 24 23 24 25 20 15 15 14 16 19 17 17 17 18 19 16 12 10 8 5 4 1 356 352 350 351
198 199 200 202 205 206 208 209 207 207 210 212 214 215 210 207 208 208 208 207 208 209 211 212 211 209 210 212 219 230 241 247 249 252 260 268 272 278 286 294 306 312 308 288 229 163 140 122 99 62 38 33 36 34 31 32 31 27 24 20 20 24 22 18 16 16 16 18 19 19 18 18 19 18 15 13 12 11 9 6 1 356 353 349 349
198 198 199 199 201 203 206 208 207 205 206 209 215 214 206 205 208 208 206 206 208 210 211 212 211 212 214 216 224 230 233 237 244 252 260 265 268 277 286 297 307 308 276 215 192 165 143 122 99 73 55 44 41 38 32 32 30 24 22 18 19 23 20 17 17 15 18 20 20 20 19 19 21 19 17 16 16 14 10 6 3 2 1 357 353
197 198 199 199 198 200 205 207 208 207 207 211 215 212 204 205 209 206 204 206 209 210 210 212 212 215 218 219 222 224 228 238 248 256 261 261 266 275 284 296 303 286 189 190 189 165 145 128 111 90 65 48 40 35 29 30 28 23 23 19 20 22 18 16 17 15 19 23 23 23 21 21 23 21 20 19 18 14 9 6 5 6 9 6 358
197 199 200 199 197 199 204 207 209 210 212 214 213 206 203 208 212 207 203 205 207 209 210 211 211 212 216 217 219 224 232 241 247 253 257 260 266 272 282 292 288 193 181 186 179 162 147 132 118 84 57 49 39 32 28 28 25 22 23 22 22 21 15 14 17 17 23 27 26 27 25 25 25 23 21 18 15 11 9 9 11 11 11 9 1
194 197 200 200 198 198 202 206 209 210 213 214 208 202 203 208 211 209 207 206 208 210 210 211 210 211 215 219 224 231 237 242 246 251 255 258 263 268 279 286 233 178 179 177 170 162 150 132 117 82 56 55 44 39 36 32 27 22 23 22 21 19 14 16 22 25 30 32 29 28 27 26 27 23 19 15 12 10 10 12 14 16 12 6 1
191 193 195 196 197 199 201 205 206 204 207 209 205 203 203 205 208 209 209 207 208 212 213 214 214 215 219 223 229 234 237 242 246 250 253 252 253 262 273 267 194 179 173 166 164 157 149 137 129 118 87 81 68 56 46 36 27 21 21 21 20 19 18 24 31 34 37 35 29 27 26 27 26 20 15 13 12 12 14 14 12 13 12 2 357
190 191 191 189 191 196 200 204 205 202 205 207 204 202 201 202 206 210 210 207 207 212 215 218 219 221 226 230 233 234 234 239 242 244 247 243 248 263 265 216 182 179 169 159 156 152 155 159 159 157 133 115 95 67 48 32 22 18 21 23 23 26 27 32 38 39 40 38 29 26 25 25 22 16 14 13 15 16 16 15 11 6 7 1 353
187 190 190 188 188 193 197 202 205 204 204 203 202 203 203 204 208 211 209 207 209 213 215 219 223 227 231 232 232 233 234 237 237 236 237 238 249 263 245 190 180 179 168 160 160 164 171 172 171 175 161 150 131 62 40 26 19 16 21 29 31 33 35 37 40 38 39 38 30 26 24 22 19 15 15 16 17 17 13 11 9 2 359 358 352
185 187 189 188 189 192 196 201 204 204 203 201 204 206 205 206 209 208 207 208 211 215 218 222 228 231 231 230 232 233 233 233 230 229 231 236 248 251 213 184 179 179 177 176 178 181 182 180 178 185 183 175 163 62 35 24 20 19 24 32 36 38 37 38 39 36 38 37 30 26 23 21 19 16 17 20 18 16 12 7 4 360 354 352 351
184 184 186 186 186 189 193 198 201 202 203 205 206 205 202 205 207 204 207 212 212 215 220 225 229 230 230 231 234 233 230 228 224 222 227 234 240 225 193 183 178 181 188 192 192 189 186 184 182 187 192 184 164 57 29 23 21 22 28 32 35 38 36 35 38 37 38 36 30 26 22 18 18 18 18 19 16 13 11 5 360 357 353 350 350
181 182 184 183 184 187 190 194 199 201 202 204 206 204 200 199 200 201 208 213 213 217 223 225 227 228 229 231 231 227 224 222 219 220 225 228 223 202 187 183 180 185 194 196 194 190 186 186 186 188 193 187 167 46 15 17 21 25 29 30 34 40 37 34 37 37 35 34 29 24 19 15 16 18 17 15 13 9 6 3 358 354 352 349 347
179 180 183 183 184 189 193 196 198 200 202 203 205 206 202 196 196 206 214 215 216 222 224 223 225 226 226 226 223 219 219 219 218 218 218 211 200 190 185 184 184 190 196 195 191 190 189 188 188 188 190 193 194 232 343 6 18 24 26 29 33 41 41 36 38 37 32 30 28 22 16 14 14 15 14 11 8 5 2 0 356 352 350 348 348
180 179 182 182 182 187 194 197 198 201 205 205 203 203 203 202 205 212 217 218 221 222 221 220 222 224 223 221 218 215 215 216 213 208 203 197 191 186 184 186 189 192 193 192 191 193 192 187 186 190 194 194 206 229 264 6 17 16 20 27 34 42 44 39 37 36 29 25 25 20 14 10 10 10 10 8 5 1 359 358 354 349 348 347 349
179 179 182 186 187 189 194 199 203 205 205 204 202 203 207 209 208 208 211 220 223 221 218 216 219 223 220 217 215 213 210 209 204 198 195 193 190 187 187 189 192 192 191 189 188 191 191 187 186 189 194 199 208 225 242 332 9 9 17 28 39 47 44 38 35 31 25 20 19 17 11 6 6 8 7 5 3 359 356 354 350 347 347 348 349
178 179 183 189 192 193 194 197 201 201 199 200 203 207 209 207 204 202 208 221 224 221 218 214 215 220 219 214 212 208 204 200 198 196 195 193 189 189 191 192 191 190 187 183 184 187 184 186 189 190 194 199 204 219 231 256 353 9 28 36 45 51 42 34 33 27 19 15 13 11 7 1 2 5 2 0 2 359 354 350 348 347 348 349 349
181 183 186 190 192 194 194 194 196 197 199 201 202 206 209 207 203 201 209 220 221 218 221 220 215 216 216 211 206 202 200 198 197 197 196 193 190 190 193 194 190 185 183 180 184 186 180 181 188 191 193 196 201 212 220 229 290 20 54 49 50 52 39 26 25 20 13 10 9 6 2 358 358 358 354 354 358 357 354 351 350 351 351 350 349
184 186 189 191 192 195 196 199 201 204 206 206 204 207 210 209 206 203 208 219 219 214 219 222 215 211 212 209 203 199 199 199 198 198 195 192 190 191 193 195 187 182 181 181 182 183 181 181 184 187 191 196 199 201 204 211 205 165 99 59 50 46 36 19 10 10 7 3 2 359 357 355 354 350 347 349 351 352 353 354 356 357 356 354 351
188 189 191 192 194 198 201 204 207 210 211 211 210 208 208 210 210 207 210 221 220 213 215 218 212 207 208 208 205 203 202 200 197 197 196 195 194 193 195 194 187 184 185 184 183 182 180 180 181 184 190 192 195 195 193 199 198 179 134 61 46 34 25 11 359 357 357 355 353 353 354 352 348 345 343 344 346 348 352 355 358 0 0 358 355
192 193 193 195 197 200 203 205 207 209 211 212 210 207 208 212 213 213 217 222 221 215 214 215 211 207 205 205 207 207 205 200 198 201 203 201 198 197 196 194 190 189 187 185 185 182 179 181 181 182 186 186 187 189 189 193 197 187 130 57 43 30 15 359 348 344 345 345 344 347 350 347 341 343 344 342 343 347 351 354 357 0 1 359 358
194 195 196 197 198 199 202 205 208 210 210 211 212 214 218 218 215 214 217 219 218 216 214 212 209 207 204 203 203 204 202 199 201 206 206 202 199 198 196 195 193 190 187 187 187 182 179 181 181 179 181 182 183 187 189 191 195 185 118 49 39 33 16 352 337 334 336 337 339 343 345 340 340 346 345 339 340 347 350 352 354 357 358 358 358
195 197 198 198 199 200 203 206 208 209 210 212 216 219 220 218 216 216 216 216 214 211 209 208 206 204 202 200 200 200 199 201 205 207 203 200 201 199 197 194 188 184 184 184 184 183 180 181 181 177 175 178 183 186 188 190 190 187 146 23 23 22 13 352 337 333 333 334 336 339 338 335 342 348 342 335 340 347 349 349 351 354 355 356 357
200 201 201 202 203 205 206 207 208 210 212 215 216 217 217 216 218 218 217 216 214 211 208 207 205 203 200 199 200 200 200 204 207 204 200 200 201 199 198 192 184 181 182 180 178 180 181 182 180 175 172 177 184 184 185 189 189 187 252 346 1 2 0 355 347 338 333 332 333 335 333 335 342 343 338 336 341 346 347 348 350 351 352 353 354
204 203 204 205 206 207 208 208 208 210 213 215 214 215 216 216 218 219 218 216 214 212 211 210 207 204 201 200 202 203 203 206 207 203 199 199 199 197 197 193 187 183 180 177 177 177 178 181 181 176 173 178 182 180 181 187 189 189 234 329 342 351 2 2 353 343 334 331 331 330 331 334 338 337 336 338 342 345 346 348 349 350 350 350 352
204 204 204 205 207 208 209 210 210 210 212 214 214 214 214 216 219 221 219 215 213 214 216 215 211 207 206 206 207 209 208 207 206 203 200 199 198 196 195 192 189 185 178 175 177 179 179 180 180 177 175 175 179 179 179 186 190 191 188 22 4 3 12 8 359 350 336 332 331 329 328 331 333 335 336 340 343 346 347 349 349 349 349 349 351
208 209 209 208 209 210 210 210 211 211 211 212 212 213 216 218 221 222 220 217 216 219 220 217 214 211 210 210 210 212 210 206 205 204 202 201 199 197 196 192 187 184 180 177 179 183 184 181 177 175 172 171 173 173 174 183 185 165 94 77 63 36 32 19 10 4 348 339 333 327 327 330 335 337 339 343 348 349 349 350 349 348 348 349 350
210 211 211 210 210 210 209 210 211 211 212 212 211 213 217 221 222 222 222 221 222 224 221 217 214 212 210 211 213 213 210 206 206 205 203 201 201 199 198 195 189 184 184 184 182 182 185 184 179 174 169 166 165 162 164 173 165 127 103 98 92 65 50 35 23 12 355 344 332 326 328 336 342 344 347 351 354 353 352 352 350 348 348 348 348
212 212 211 211 211 212 213 212 211 212 212 211 212 214 217 221 223 223 225 226 225 223 219 215 214 212 210 212 214 212 209 207 207 205 203 202 203 203 202 199 194 188 187 188 187 186 189 189 183 176 171 166 161 157 157 157 134 109 99 97 87 64 50 34 17 7 354 342 335 335 342 350 353 355 357 359 360 358 356 354 352 350 348 346 346
212 213 212 210 210 211 212 212 211 212 213 212 213 214 217 220 222 224 227 227 222 220 219 216 212 211 211 211 210 208 207 208 207 205 204 204 203 205 207 205 200 193 189 190 192 193 191 187 182 179 176 172 167 162 156 142 112 96 91 82 61 48 44 25 4 355 346 340 343 347 354 359 0 2 4 4 3 1 358 356 354 352 349 347 346
208 210 211 210 210 210 211 212 212 212 212 213 213 215 217 219 222 226 228 225 219 219 221 217 212 212 211 208 207 207 208 208 205 204 205 206 204 204 207 208 205 198 193 192 194 194 191 187 184 183 181 178 174 168 157 134 105 89 84 69 39 23 20 6 342 330 331 338 346 348 352 358 2 4 6 5 4 2 359 357 356 353 351 349 347
210 210 211 211 211 210 209 211 212 212 211 212 214 215 218 219 221 225 226 222 217 218 218 214 213 213 210 206 207 209 210 208 205 204 206 207 207 206 206 208 208 202 198 195 194 194 193 190 187 186 184 182 178 173 162 137 109 90 79 59 25 4 353 332 307 307 323 336 343 345 347 353 360 4 5 5 4 3 0 358 357 354 352 351 350
211 212 212 212 212 211 209 209 211 211 211 212 214 216 219 220 221 223 224 220 218 218 215 213 213 212 208 206 207 208 209 207 205 205 207 207 207 207 207 207 205 202 201 198 196 196 196 195 192 189 186 184 180 177 170 145 120 104 71 28 3 355 343 323 309 315 331 339 342 344 344 350 357 2 4 4 3 3 2 360 358 356 354 353 352
211 211 211 209 208 209 208 207 208 209 210 212 214 218 222 224 224 224 222 220 220 218 214 212 212 210 208 208 208 206 207 206 205 207 208 209 209 209 208 205 201 200 201 200 198 198 199 198 197 192 187 185 184 184 181 165 150 157 277 291 310 324 316 314 318 323 330 337 340 342 343 347 353 358 1 2 3 4 4 2 359 357 355 354 354
213 211 209 208 206 206 206 207 206 206 208 211 214 218 223 225 226 225 221 219 220 218 213 211 211 209 208 209 208 206 204 204 206 207 209 210 212 212 210 205 200 201 202 200 200 202 201 200 199 193 188 189 192 193 193 196 208 233 265 279 292 301 299 302 308 311 315 320 327 334 338 343 349 355 359 2 3 4 5 5 2 359 356 355 355
213 212 209 208 206 205 205 207 208 208 210 211 212 215 220 223 225 224 221 219 219 217 213 211 210 209 210 211 210 207 205 204 205 207 208 209 210 211 210 206 204 206 205 202 201 203 205 206 203 195 192 195 199 201 204 217 240 258 269 276 287 296 295 296 297 297 300 303 309 321 330 337 344 351 356 1 4 5 6 6 4 1 358 356 355
214 212 210 207 207 209 210 210 210 211 212 210 210 214 219 221 223 223 220 219 218 215 211 212 211 210 212 213 210 209 207 205 206 206 207 210 212 211 209 207 208 210 211 209 208 208 208 209 205 198 196 197 195 200 217 234 251 264 270 273 283 291 292 291 288 287 288 292 300 313 325 334 342 348 352 358 3 5 6 7 5 2 359 357 357
211 210 208 207 210 215 216 213 212 213 212 210 210 212 216 220 223 223 221 220 218 214 211 212 211 211 213 213 209 207 207 207 207 206 205 208 211 212 212 211 212 210 209 210 213 212 211 210 205 200 202 200 191 208 245 252 259 266 270 273 280 287 289 289 286 284 285 287 295 308 322 332 339 345 349 354 358 2 3 4 6 5 1 359 360
208 206 205 204 206 210 211 211 211 211 210 211 211 210 212 218 222 223 221 220 218 215 213 213 213 214 216 215 210 207 206 207 207 206 206 206 206 206 208 210 211 210 209 208 210 208 206 207 207 208 212 215 216 230 250 263 268 267 269 274 278 282 287 288 286 285 286 288 292 301 315 327 334 341 347 350 354 358 0 1 4 8 7 4 3